This demonstration page uses our WeatherBlox Daily Observations layout. Learn more.

Left ArrowRight Arrow

Hourly Observations for August 20, 2019

Temp ( °F °C ) Dew Point ( °F °C ) Humidity (%) Winds ( mph kmh ) Pressure ( in mb ) Visibility ( mi km ) Precip ( " mm )
12:56 am 00:56 Mostly Cloudy 81 27 77 25 89 89 SE 14 22 29.90 1012 10 16 0.00 0.00
1:56 am 01:56 Mostly Cloudy 81 27 77 25 89 89 SE 9 15 29.89 1012 10 16 0.00 0.00
2:56 am 02:56 Mostly Cloudy 81 27 77 25 89 89 S 9 15 29.83 1010 10 16 0.00 0.00
3:56 am 03:56 Mostly Cloudy 81 27 77 25 89 89 SSE 7 11 29.82 1010 10 16 0.00 0.00
4:56 am 04:56 Mostly Cloudy 81 27 77 25 89 89 S 3 6 29.81 1010 10 16 0.00 0.00
5:56 am 05:56 Mostly Cloudy 81 27 75 24 84 84 NE 8 13 29.84 1011 10 16 0.00 0.00
6:56 am 06:56 Mostly Cloudy 79 26 75 24 89 89 Calm 29.86 1011 10 16 0.00 0.00
7:56 am 07:56 Partly Cloudy 81 27 77 25 89 89 VRB 7 11 29.88 1012 7 11 0.00 0.00
8:56 am 08:56 Sunny N/A N/A N/A ENE 7 11 N/A N/A 0.00 0.00
9:56 am 09:56 Sunny N/A N/A N/A ESE 3 6 N/A N/A 0.00 0.00
10:56 am 10:56 Mostly Sunny 88 31 77 25 70 70 SSE 3 6 29.90 1013 7 11 0.00 0.00
11:46 am 11:46 Mostly Sunny 91 33 75 24 59 59 VRB 3 6 29.90 1013 7 11 0.00 0.00
11:56 am 11:56 Mostly Sunny 91 33 75 24 59 59 VRB 3 6 29.90 1012 7 11 0.00 0.00
12:55 pm 12:55 Mostly Sunny 91 33 77 25 63 63 VRB 6 9 29.91 1013 10 16 0.00 0.00
1:56 pm 13:56 Partly Cloudy 91 33 75 24 59 59 SSE 5 7 29.91 1013 7 11 0.00 0.00
2:56 pm 14:56 Mostly Sunny 93 34 75 24 56 56 SE 9 15 29.91 1013 7 11 0.00 0.00
3:56 pm 15:56 Mostly Sunny 93 34 77 25 59 59 SE 6 9 29.91 1013 10 16 0.00 0.00
4:56 pm 16:56 Mostly Sunny 93 34 77 25 59 59 ESE 3 6 29.90 1012 10 16 0.00 0.00
5:56 pm 17:56 Partly Cloudy 93 34 77 25 59 59 SE 3 6 29.90 1013 10 16 0.00 0.00
6:56 pm 18:56 Mostly Cloudy 91 33 77 25 63 63 ESE 6 9 29.88 1012 10 16 0.00 0.00
7:56 pm 19:56 Mostly Cloudy 90 32 79 26 71 71 SW 3 6 29.92 1013 10 16 0.00 0.00
8:56 pm 20:56 Mostly Cloudy with Light Rain 88 31 79 26 75 75 N 6 9 29.93 1014 8 13 0.00 0.00
9:15 pm 21:15 Mostly Cloudy 88 31 79 26 75 75 NNE 6 9 29.94 1014 10 16 0.00 0.00
9:56 pm 21:56 Cloudy 86 30 79 26 79 79 ESE 12 19 29.91 1013 10 16 0.00 0.00
10:56 pm 22:56 Cloudy 86 30 79 26 79 79 N 5 7 29.97 1015 8 13 0.00 0.00
11:49 pm 23:49 Mostly Cloudy with Light Showers 84 29 79 26 84 84 VRB 3 6 29.97 1015 6 10 0.00 0.00
11:56 pm 23:56 Mostly Cloudy with Light Showers 84 29 77 25 79 79 N 8 13 29.99 1016 6 10 0.00 0.00

Powered by AerisWeather